GW1216 Weather Reports


time (UTC)temp
F
wind
direction
speed
knots
gust
knots
rain 1hr
in
rain 24hr
in
rain mn
in
humidity
%
barometer
mb
20260502170214 47 41 5.2 13.9 0.00 0.00 0.00 31 1028.3
20260502164201 49 337 5.2 6.1 0.00 0.00 0.00 32 1028.1
20260502163656 49 51 1.7 8.7 0.00 0.00 0.00 30 1028.3
20260502163153 49 84 2.6 6.1 0.00 0.00 0.00 32 1027.9
20260502162650 48 159 3.5 6.1 0.00 0.00 0.00 31 1027.9
20260502162147 48 230 4.3 13.9 0.00 0.00 0.00 32 1028.2
20260502161644 46 20 1.7 7.8 0.00 0.00 0.00 35 1028.3
20260502161141 48 63 2.6 5.2 0.00 0.00 0.00 33 1028.2
20260502160639 46 93 2.6 7.8 0.00 0.00 0.00 35 1028.3
20260502160138 46 175 3.5 6.1 0.00 0.00 0.00 33 1028.2
20260502152051 44 52 4.3 6.1 0.00 0.00 0.00 35 1028.3
20260502151549 45 31 2.6 4.3 0.00 0.00 0.00 37 1028.3
20260502151046 43 115 3.5 10.4 0.00 0.00 0.00 39 1028.1
20260502150543 45 78 7.0 8.7 0.00 0.00 0.00 34 1028.1
20260502130428 31 79 5.2 7.8 0.00 0.00 0.00 61 1027.3
20260502123411 29 77 6.1 7.0 0.00 0.00 0.00 63 1027.3
20260502122908 30 74 5.2 7.0 0.00 0.00 0.00 62 1026.9
20260502122404 29 74 5.2 7.0 0.00 0.00 0.00 64 1026.6
20260502121903 28 68 4.3 5.2 0.00 0.00 0.00 67 1026.9
20260502121359 25 60 4.3 7.0 0.00 0.00 0.00 70 1027.0
20260502120857 26 65 5.2 6.1 0.00 0.00 0.00 69 1026.9
20260502120353 27 59 5.2 6.1 0.00 0.00 0.00 66 1026.7
20260502115850 28 62 5.2 5.2 0.00 0.00 0.00 65 1026.7
20260502115347 28 49 6.1 7.0 0.00 0.00 0.00 63 1026.9
20260502114843 31 69 3.5 5.2 0.00 0.00 0.00 60 1026.5
20260502114340 30 65 4.3 4.3 0.00 0.00 0.00 61 1026.3
20260502113837 30 57 4.3 5.2 0.00 0.00 0.00 62 1026.5
20260502113335 30 66 2.6 3.5 0.00 0.00 0.00 63 1026.5
20260502112833 30 68 3.5 4.3 0.00 0.00 0.00 64 1026.5
20260502112330 30 70 1.7 4.3 0.00 0.00 0.00 65 1026.5
20260502111828 28 75 3.5 3.5 0.00 0.00 0.00 68 1026.6
20260502111325 29 80 3.5 4.3 0.00 0.00 0.00 66 1026.6
20260502110823 27 85 4.3 6.1 0.00 0.00 0.00 70 1026.9
20260502110320 27 57 4.3 5.2 0.00 0.00 0.00 71 1026.6
20260502105818 26 42 3.5 6.1 0.00 0.00 0.00 71 1026.7
20260502105314 26 45 5.2 6.1 0.00 0.00 0.00 69 1026.5
20260502104812 28 71 5.2 7.8 0.00 0.00 0.00 68 1026.2
20260502104309 29 50 5.2 7.8 0.00 0.00 0.00 68 1026.5
20260502103806 30 63 6.1 7.8 0.00 0.00 0.00 66 1026.6
20260502103304 30 43 6.1 7.8 0.00 0.00 0.00 67 1026.5
20260502102801 29 38 7.0 7.8 0.00 0.00 0.00 66 1026.7
20260502102257 28 63 7.8 7.8 0.00 0.00 0.00 69 1026.6
20260502101755 29 70 5.2 7.0 0.00 0.00 0.00 66 1026.3
20260502101253 30 83 7.0 7.0 0.00 0.00 0.00 64 1026.5
20260502100751 29 68 7.0 7.0 0.00 0.00 0.00 66 1026.6
20260502100249 31 70 4.3 6.1 0.00 0.00 0.00 64 1026.3
20260502091224 29 80 4.3 5.2 0.00 0.00 0.00 68 1026.1
20260502090721 29 91 4.3 5.2 0.00 0.00 0.00 69 1026.1
20260502090218 29 85 4.3 5.2 0.00 0.00 0.00 69 1026.1
20260502071113 29 108 2.6 4.3 0.00 0.00 0.00 75 1025.8
20260502070611 29 97 2.6 3.5 0.00 0.00 0.00 75 1025.7
20260502070109 28 108 1.7 2.6 0.00 0.00 0.00 74 1025.7
20260502065607 30 88 2.6 6.1 0.00 0.00 0.00 73 1025.8
20260502065104 32 66 6.1 8.7 0.00 0.00 0.00 70 1025.8
20260502064603 32 62 6.1 7.8 0.00 0.00 0.00 70 1025.5
20260502064100 32 70 6.1 9.6 0.00 0.00 0.00 70 1025.7
20260502063557 32 65 7.8 10.4 0.00 0.00 0.00 70 1025.7
20260502063055 32 60 8.7 9.6 0.00 0.00 0.00 71 1025.4
20260502062552 33 54 7.8 7.8 0.00 0.00 0.00 68 1025.5
20260502062050 33 60 7.8 9.6 0.00 0.00 0.00 67 1025.7
20260502061547 33 79 9.6 12.2 0.00 0.00 0.00 68 1025.8
20260502061044 33 89 4.3 10.4 0.00 0.00 0.00 69 1025.7
20260502060539 33 95 6.1 9.6 0.00 0.00 0.00 70 1025.7
20260502060037 33 87 5.2 9.6 0.00 0.00 0.00 69 1025.7
20260502055534 33 96 5.2 11.3 0.00 0.00 0.00 70 1025.7
20260502055033 33 103 10.4 12.2 0.00 0.00 0.00 71 1025.5
20260502054531 33 73 6.1 7.8 0.00 0.00 0.00 71 1025.5
20260502054027 33 84 9.6 12.2 0.00 0.00 0.00 71 1025.4
20260502053524 33 87 6.1 10.4 0.00 0.00 0.00 73 1025.7
20260502053022 32 93 7.8 9.6 0.00 0.00 0.00 74 1025.4
20260502052520 32 78 4.3 7.8 0.00 0.00 0.00 75 1025.4
20260502052018 32 75 4.3 9.6 0.00 0.00 0.00 75 1025.1
20260502051516 32 79 4.3 9.6 0.00 0.00 0.00 77 1025.1
20260502051014 31 104 4.3 5.2 0.00 0.00 0.00 80 1025.4
20260502050510 31 96 2.6 6.1 0.00 0.00 0.00 80 1025.1
20260502050007 31 84 4.3 6.1 0.00 0.00 0.00 79 1025.4
20260502045503 32 86 3.5 4.3 0.00 0.00 0.00 78 1025.4
20260502045001 32 89 1.7 4.3 0.00 0.00 0.00 77 1025.7
20260502044456 33 53 2.6 3.5 0.00 0.00 0.00 77 1025.4
20260502043953 32 29 2.6 3.5 0.00 0.00 0.00 77 1025.5
20260502043451 33 347 0.0 2.6 0.00 0.00 0.00 76 1025.4
20260502042950 34 115 1.7 3.5 0.00 0.00 0.00 75 1025.3
20260502042447 34 84 4.3 7.8 0.00 0.00 0.00 76 1025.3
20260502041945 33 84 7.0 7.0 0.00 0.00 0.00 77 1025.5
20260502041443 33 89 3.5 6.1 0.00 0.00 0.00 77 1025.4
20260502040939 33 76 4.3 5.2 0.00 0.00 0.00 77 1025.3
20260502040436 33 75 5.2 6.1 0.00 0.00 0.00 77 1025.1
20260502035932 34 63 5.2 7.0 0.00 0.00 0.00 76 1025.3
20260502035428 33 78 6.1 6.1 0.00 0.00 0.00 77 1025.1
20260502034926 33 82 4.3 5.2 0.00 0.00 0.00 78 1025.1
20260502034425 32 77 4.3 6.1 0.00 0.00 0.00 78 1024.9
20260502033923 33 93 4.3 5.2 0.00 0.00 0.00 78 1025.0
20260502033420 33 107 1.7 6.1 0.00 0.00 0.00 77 1024.9
20260502032917 33 66 3.5 4.3 0.00 0.00 0.00 77 1024.9
20260502032413 33 111 2.6 6.1 0.00 0.00 0.00 77 1025.0
20260502031910 33 64 5.2 6.1 0.00 0.00 0.00 78 1024.8
20260502031409 33 100 5.2 7.0 0.00 0.00 0.00 77 1024.6
20260502030907 33 100 3.5 6.1 0.00 0.00 0.00 78 1024.5
20260502030404 33 77 5.2 7.0 0.00 0.00 0.00 77 1024.8
20260502025903 33 154 4.3 5.2 0.00 0.00 0.00 78 1024.5
20260502025359 33 81 3.5 4.3 0.00 0.00 0.00 77 1024.4
20260502024857 34 166 2.6 4.3 0.00 0.00 0.00 77 1024.5
20260502024355 34 86 4.3 7.8 0.00 0.00 0.00 76 1024.4
20260502023852 34 111 4.3 10.4 0.00 0.00 0.00 76 1024.2
20260502023350 34 99 6.1 7.0 0.00 0.00 0.00 76 1024.0
20260502022847 34 106 3.5 6.1 0.00 0.00 0.00 75 1024.1
20260502022343 34 85 4.3 7.0 0.00 0.00 0.00 75 1024.0
20260502021840 34 67 4.3 7.0 0.00 0.00 0.00 76 1024.1
20260502021338 34 73 5.2 7.8 0.00 0.00 0.00 76 1024.0
20260502020835 34 56 5.2 6.1 0.00 0.00 0.00 74 1023.8
20260502020333 34 88 3.5 7.0 0.00 0.00 0.00 72 1024.0
20260502015829 35 99 4.3 7.8 0.00 0.00 0.00 71 1024.0
20260502015327 35 100 3.5 5.2 0.00 0.00 0.00 70 1024.0
20260502014824 35 103 2.6 5.2 0.00 0.00 0.00 69 1024.0
20260502014321 35 92 3.5 4.3 0.00 0.00 0.00 69 1024.0
20260502013817 35 114 2.6 5.2 0.00 0.00 0.00 69 1023.8
20260502013313 35 106 4.3 6.1 0.00 0.00 0.00 70 1023.7
20260502012809 35 59 3.5 4.3 0.00 0.00 0.00 69 1023.7
20260502012307 36 109 1.7 3.5 0.00 0.00 0.00 68 1023.7
20260502011804 36 160 1.7 4.3 0.00 0.00 0.00 69 1023.7
20260502011300 36 209 3.5 4.3 0.00 0.00 0.00 69 1023.6
20260502010758 35 207 3.5 7.0 0.00 0.00 0.00 70 1023.7
20260502010254 35 229 4.3 7.8 0.00 0.00 0.00 70 1023.4
20260502005751 36 187 2.6 7.8 0.00 0.00 0.00 70 1023.4
20260502005249 36 206 3.5 8.7 0.00 0.00 0.00 69 1023.6
20260502004745 36 124 2.6 5.2 0.00 0.00 0.00 68 1023.7
20260502004242 35 95 3.5 11.3 0.00 0.00 0.00 70 1023.7
20260502003740 35 157 3.5 13.0 0.00 0.00 0.00 71 1023.6
20260502003237 35 141 5.2 10.4 0.00 0.00 0.00 68 1023.4
20260502002732 35 150 4.3 16.5 0.00 0.00 0.00 71 1023.4
20260502002230 34 146 5.2 15.6 0.00 0.00 0.00 72 1023.8
20260502001727 35 120 7.0 18.2 0.00 0.00 0.00 74 1023.8
20260502001225 35 124 13.0 18.2 0.00 0.00 0.00 71 1023.3
20260502000723 37 116 17.4 17.4 0.00 0.00 0.00 65 1023.4
20260502000220 37 133 5.2 17.4 0.00 0.00 0.00 68 1023.2
20260501235716 37 109 12.2 19.1 0.00 0.00 0.00 67 1023.4
20260501235212 38 99 18.2 19.1 0.00 0.00 0.00 63 1023.2
20260501234708 38 105 12.2 18.2 0.00 0.00 0.00 60 1023.0
20260501234205 39 88 7.8 15.6 0.00 0.00 0.00 60 1023.2
20260501233703 39 117 7.8 19.1 0.00 0.00 0.00 59 1022.9
20260501233200 40 92 11.3 15.6 0.00 0.00 0.00 54 1023.0
20260501232655 43 163 2.6 7.8 0.00 0.00 0.00 51 1022.8
20260501232153 44 152 0.0 3.5 0.00 0.00 0.00 48 1022.5
20260501231651 44 243 4.3 9.6 0.00 0.00 0.00 47 1022.5
20260501231149 43 288 3.5 11.3 0.00 0.00 0.00 53 1022.4
20260501230647 44 245 9.6 12.2 0.00 0.00 0.00 54 1022.5
20260501230145 46 214 7.0 19.1 0.00 0.00 0.00 53 1022.4
20260501225642 46 232 5.2 11.3 0.00 0.00 0.00 55 1022.5
20260501225138 44 235 6.1 9.6 0.00 0.00 0.00 60 1022.2
20260501224635 43 231 14.8 15.6 0.00 0.00 0.00 59 1022.4
20260501224133 42 233 8.7 17.4 0.00 0.00 0.00 61 1022.5
20260501223629 40 221 6.1 13.9 0.00 0.00 0.00 69 1022.8
20260501223126 39 241 4.3 10.4 0.00 0.00 0.00 74 1022.8
20260501222621 37 258 3.5 9.6 0.00 0.00 0.00 83 1022.9
20260501222119 36 256 6.1 12.2 0.00 0.00 0.00 84 1023.2
20260501221615 36 254 4.3 10.4 0.00 0.00 0.00 81 1023.4
20260501221113 37 301 5.2 14.8 0.00 0.00 0.00 74 1023.2
20260501220611 38 335 6.1 13.0 0.00 0.00 0.00 68 1023.0
20260501220108 39 264 5.2 11.3 0.00 0.00 0.00 67 1023.3
20260501215604 41 30 0.0 8.7 0.00 0.00 0.00 64 1023.3
20260501215059 42 257 4.3 17.4 0.00 0.00 0.00 61 1023.3
20260501214554 40 260 11.3 13.9 0.00 0.00 0.00 62 1022.9
20260501214050 40 320 4.3 13.0 0.00 0.00 0.00 60 1023.2
20260501213547 41 348 11.3 15.6 0.00 0.00 0.00 57 1022.9
20260501213044 40 343 7.8 19.1 0.00 0.00 0.00 57 1022.9
20260501212540 41 43 5.2 8.7 0.00 0.00 0.00 56 1023.0
20260501212037 41 283 0.0 8.7 0.00 0.00 0.00 53 1022.9
20260501211534 43 279 3.5 9.6 0.00 0.00 0.00 53 1022.8
20260501211032 41 225 20.0 27.8 0.00 0.00 0.00 54 1022.4
20260501210527 42 217 7.8 20.0 0.00 0.00 0.00 52 1022.1
20260501210025 45 228 12.2 15.6 0.00 0.00 0.00 50 1022.5
20260501205521 43 214 9.6 17.4 0.00 0.00 0.00 51 1022.6
20260501205019 43 189 14.8 20.9 0.00 0.00 0.00 50 1022.4
20260501204515 42 218 4.3 17.4 0.00 0.00 0.00 54 1022.4
20260501204011 40 213 7.8 18.2 0.00 0.00 0.00 56 1022.5
20260501203508 40 208 13.0 13.9 0.00 0.00 0.00 57 1022.5
20260501203006 40 215 11.3 14.8 0.00 0.00 0.00 56 1022.4
20260501202502 39 224 12.2 18.2 0.00 0.00 0.00 59 1022.1
20260501201958 38 204 9.6 20.0 0.00 0.00 0.00 62 1022.2
20260501201456 38 217 17.4 21.7 0.00 0.00 0.00 63 1022.2
20260501200952 37 220 20.0 23.5 0.00 0.00 0.00 64 1022.1
20260501200445 37 226 7.0 20.9 0.00 0.00 0.00 67 1022.0
20260501195941 37 224 10.4 22.6 0.00 0.00 0.00 66 1022.1
20260501195438 37 216 13.9 22.6 0.00 0.00 0.00 65 1021.8
20260501194933 38 212 20.9 26.9 0.00 0.00 0.00 58 1021.6
20260501194429 39 215 7.0 26.1 0.00 0.00 0.00 53 1021.7
20260501193925 39 222 7.0 17.4 0.00 0.00 0.00 49 1022.0
20260501193424 40 215 9.6 14.8 0.00 0.00 0.00 48 1021.8
20260501192921 40 197 9.6 20.0 0.00 0.00 0.00 47 1022.0
20260501192418 43 222 3.5 10.4 0.00 0.00 0.00 36 1022.0
20260501191915 44 350 4.3 7.0 0.00 0.00 0.00 37 1021.6
20260501191413 44 326 3.5 9.6 0.00 0.00 0.00 37 1021.4
20260501190910 44 4 2.6 7.0 0.00 0.00 0.00 37 1021.6
20260501190406 43 268 6.1 9.6 0.00 0.00 0.00 36 1021.3
20260501185900 44 345 3.5 11.3 0.00 0.00 0.00 35 1021.4
20260501185357 44 304 6.1 14.8 0.00 0.00 0.00 36 1021.6
20260501184853 44 0 7.0 15.6 0.00 0.00 0.00 36 1021.6
20260501184349 44 343 6.1 12.2 0.00 0.00 0.00 38 1021.6
20260501183844 46 320 8.7 22.6 0.00 0.00 0.00 33 1021.7
20260501183342 46 358 11.3 17.4 0.00 0.00 0.00 32 1021.7
20260501182838 47 9 14.8 20.0 0.00 0.00 0.00 31 1021.6
20260501182335 50 15 12.2 18.2 0.00 0.00 0.00 28 1021.6
20260501181832 48 312 6.1 13.9 0.00 0.00 0.00 31 1022.0
20260501181329 46 345 3.5 11.3 0.00 0.00 0.00 34 1021.4
20260501180826 48 345 8.7 15.6 0.00 0.00 0.00 31 1021.7
20260501180322 47 323 7.0 15.6 0.00 0.00 0.00 34 1021.7